When you browse on this site, cookies collect data to enhance your experience and personalize the content and advertising you see.
Visit our Privacy Policy to learn more. By continuing to use the site, you agree to this use of cookies and data.
  • In Switzerland
  • List of Countries
  • For 7 days
  • Water Temperature
  • Satellite Maps
  • Weather Map
  • Weather Widgets
  • user-avatar
    Login

    Hourly Weather Linz

    Today, 21 March, Thursday

    Time Temperature Precipitation Wind Pressure Humidity
    00:00 +3°C° 0 mm 1 mps 747 mmHg 68%
    01:00 +2°C° 0 mm 1 mps 748 mmHg 70%
    02:00 +2°C° 0 mm 1 mps 747 mmHg 70%
    03:00 +2°C° 0 mm 1 mps 747 mmHg 70%
    04:00 +2°C° 0 mm 1 mps 747 mmHg 70%
    05:00 +2°C° 0 mm 1 mps 747 mmHg 69%
    06:00 +2°C° 0 mm 1 mps 747 mmHg 68%
    07:00 +3°C° 0 mm 1 mps 747 mmHg 61%
    08:00 +5°C° 0 mm 1 mps 747 mmHg 56%
    09:00 +6°C° 0 mm 2 mps 747 mmHg 51%
    10:00 +8°C° 0 mm 2 mps 746 mmHg 46%
    11:00 +10°C° 0 mm 3 mps 746 mmHg 44%
    12:00 +11°C° 0 mm 3 mps 745 mmHg 41%
    13:00 +12°C° 0 mm 3 mps 745 mmHg 39%
    14:00 +13°C° 0 mm 3 mps 745 mmHg 40%
    15:00 +13°C° 0 mm 3 mps 744 mmHg 42%
    16:00 +13°C° 0 mm 3 mps 744 mmHg 43%
    17:00 +11°C° 0 mm 3 mps 744 mmHg 50%
    18:00 +9°C° 0 mm 3 mps 744 mmHg 56%
    19:00 +7°C° 0 mm 2 mps 744 mmHg 63%
    20:00 +6°C° 0 mm 2 mps 745 mmHg 64%
    21:00 +5°C° 0 mm 2 mps 745 mmHg 65%
    22:00 +5°C° 0 mm 2 mps 745 mmHg 65%
    23:00 +4°C° 0 mm 2 mps 745 mmHg 65%

    Tomorrow, 22 March, Friday

    Time Temperature Precipitation Wind Pressure Humidity
    00:00 +5°C° 0 mm 1 mps 745 mmHg 65%
    01:00 +5°C° 0 mm 1 mps 745 mmHg 65%
    02:00 +4°C° 0 mm 1 mps 745 mmHg 65%
    03:00 +4°C° 0 mm 1 mps 745 mmHg 65%
    04:00 +4°C° 0 mm 1 mps 744 mmHg 65%
    05:00 +4°C° 0 mm 1 mps 744 mmHg 66%
    06:00 +4°C° 0 mm 1 mps 744 mmHg 66%
    07:00 +5°C° 0 mm 1 mps 745 mmHg 67%
    08:00 +6°C° 0 mm 2 mps 744 mmHg 61%
    09:00 +9°C° 0 mm 2 mps 744 mmHg 55%
    10:00 +12°C° 0 mm 2 mps 744 mmHg 49%
    11:00 +13°C° 0 mm 3 mps 743 mmHg 47%
    12:00 +14°C° 0 mm 3 mps 743 mmHg 44%
    13:00 +17°C° 0 mm 3 mps 743 mmHg 42%
    14:00 +17°C° 0 mm 3 mps 743 mmHg 45%
    15:00 +17°C° 0 mm 4 mps 742 mmHg 48%
    16:00 +17°C° 0 mm 4 mps 742 mmHg 50%
    17:00 +14°C° 0 mm 3 mps 742 mmHg 58%
    18:00 +12°C° 0 mm 3 mps 742 mmHg 65%
    19:00 +10°C° 0 mm 3 mps 742 mmHg 73%
    20:00 +9°C° 0 mm 2 mps 742 mmHg 75%
    21:00 +8°C° 0 mm 2 mps 743 mmHg 77%
    22:00 +9°C° 0 mm 1 mps 743 mmHg 79%
    23:00 +8°C° 0 mm 1 mps 743 mmHg 79%

    Day after tomorrow, 23 March, Saturday

    Time Temperature Precipitation Wind Pressure Humidity
    00:00 +8°C° 0 mm 1 mps 742 mmHg 78%
    01:00 +7°C° 0 mm 1 mps 742 mmHg 78%
    02:00 +7°C° 0 mm 1 mps 742 mmHg 78%
    03:00 +7°C° 0 mm 1 mps 742 mmHg 78%
    04:00 +6°C° 0 mm 1 mps 742 mmHg 78%
    05:00 +5°C° 0 mm 0 mps 742 mmHg 77%
    06:00 +6°C° 0 mm 0 mps 742 mmHg 76%
    07:00 +6°C° 0 mm 0 mps 742 mmHg 75%
    08:00 +9°C° 0 mm 1 mps 742 mmHg 69%
    09:00 +11°C° 0 mm 1 mps 741 mmHg 62%
    10:00 +13°C° 0 mm 1 mps 741 mmHg 56%
    11:00 +14°C° 0 mm 1 mps 741 mmHg 54%
    12:00 +15°C° 0 mm 1 mps 741 mmHg 52%
    13:00 +17°C° 0 mm 2 mps 740 mmHg 50%
    14:00 +18°C° 0 mm 1 mps 740 mmHg 50%
    15:00 +18°C° 0 mm 1 mps 740 mmHg 51%
    16:00 +18°C° 0 mm 1 mps 739 mmHg 52%
    17:00 +15°C° 0 mm 1 mps 740 mmHg 59%
    18:00 +13°C° 0 mm 1 mps 740 mmHg 66%
    19:00 +10°C° 0 mm 0 mps 740 mmHg 73%
    20:00 +10°C° 0 mm 0 mps 740 mmHg 75%
    21:00 +10°C° 0 mm 1 mps 741 mmHg 77%
    22:00 +10°C° 0 mm 1 mps 741 mmHg 79%
    23:00 +9°C° 0 mm 1 mps 741 mmHg 80%

    24 March, Sunday

    Time Temperature Precipitation Wind Pressure Humidity
    00:00 +9°C° 0 mm 1 mps 740 mmHg 82%
    01:00 +9°C° 0 mm 1 mps 740 mmHg 83%
    02:00 +8°C° 0 mm 1 mps 740 mmHg 84%
    03:00 +8°C° 0 mm 1 mps 740 mmHg 85%
    04:00 +8°C° 0 mm 1 mps 740 mmHg 85%
    05:00 +8°C° 0 mm 1 mps 740 mmHg 85%
    06:00 +8°C° 0 mm 1 mps 740 mmHg 85%
    07:00 +8°C° 0 mm 1 mps 740 mmHg 85%
    08:00 +10°C° 0 mm 1 mps 740 mmHg 78%
    09:00 +12°C° 0 mm 1 mps 740 mmHg 72%
    10:00 +14°C° 0 mm 1 mps 739 mmHg 65%
    11:00 +15°C° 0 mm 1 mps 739 mmHg 62%
    12:00 +16°C° 0 mm 1 mps 739 mmHg 60%
    13:00 +18°C° 0 mm 1 mps 739 mmHg 58%
    14:00 +18°C° 0 mm 1 mps 738 mmHg 58%
    15:00 +18°C° 0 mm 1 mps 738 mmHg 58%
    16:00 +18°C° 0 mm 1 mps 738 mmHg 58%
    17:00 +15°C° 0.1 mm 1 mps 738 mmHg 66%
    18:00 +13°C° 0.1 mm 1 mps 738 mmHg 73%
    19:00 +12°C° 0.1 mm 1 mps 738 mmHg 81%
    20:00 +11°C° 0.4 mm 1 mps 739 mmHg 84%
    21:00 +10°C° 0.4 mm 1 mps 739 mmHg 87%
    22:00 +10°C° 0.4 mm 1 mps 739 mmHg 90%
    23:00 +9°C° 0.1 mm 1 mps 740 mmHg 89%

    25 March, Monday

    Time Temperature Precipitation Wind Pressure Humidity
    00:00 +9°C° 0.1 mm 1 mps 740 mmHg 88%
    01:00 +9°C° 0.1 mm 1 mps 740 mmHg 87%
    02:00 +9°C° 0 mm 1 mps 740 mmHg 85%
    03:00 +8°C° 0 mm 1 mps 740 mmHg 83%
    04:00 +8°C° 0 mm 1 mps 740 mmHg 81%
    05:00 +7°C° 0.2 mm 1 mps 740 mmHg 79%
    06:00 +7°C° 0.2 mm 1 mps 740 mmHg 78%
    07:00 +7°C° 0.2 mm 1 mps 741 mmHg 76%
    08:00 +8°C° 0 mm 1 mps 741 mmHg 70%
    09:00 +9°C° 0 mm 1 mps 741 mmHg 64%
    10:00 +9°C° 0 mm 0 mps 741 mmHg 58%
    11:00 +10°C° 0 mm 1 mps 741 mmHg 57%
    12:00 +10°C° 0 mm 2 mps 740 mmHg 56%
    13:00 +10°C° 0 mm 4 mps 740 mmHg 55%
    14:00 +10°C° 0 mm 4 mps 740 mmHg 53%
    15:00 +10°C° 0 mm 5 mps 739 mmHg 50%
    16:00 +10°C° 0 mm 5 mps 739 mmHg 48%
    17:00 +8°C° 0 mm 5 mps 739 mmHg 51%
    18:00 +7°C° 0 mm 4 mps 740 mmHg 55%
    19:00 +6°C° 0 mm 4 mps 740 mmHg 59%
    20:00 +5°C° 0 mm 4 mps 740 mmHg 62%
    21:00 +5°C° 0 mm 4 mps 741 mmHg 64%
    22:00 +4°C° 0 mm 4 mps 741 mmHg 67%
    23:00 +4°C° 0 mm 4 mps 741 mmHg 71%

    26 March, Tuesday

    Time Temperature Precipitation Wind Pressure Humidity
    00:00 +4°C° 0 mm 4 mps 741 mmHg 74%
    01:00 +3°C° 0 mm 5 mps 741 mmHg 77%
    02:00 +3°C° 0 mm 5 mps 741 mmHg 78%
    03:00 +2°C° 0 mm 5 mps 741 mmHg 80%
    04:00 +2°C° 0 mm 6 mps 740 mmHg 81%
    05:00 +2°C° 0 mm 6 mps 740 mmHg 80%
    06:00 +2°C° 0 mm 6 mps 740 mmHg 79%
    07:00 +2°C° 0 mm 7 mps 740 mmHg 79%
    08:00 +3°C° 0.1 mm 7 mps 740 mmHg 76%
    09:00 +4°C° 0.1 mm 8 mps 740 mmHg 73%
    10:00 +5°C° 0.1 mm 9 mps 739 mmHg 70%
    11:00 +5°C° 0.1 mm 9 mps 739 mmHg 68%
    12:00 +6°C° 0.1 mm 9 mps 739 mmHg 66%
    13:00 +6°C° 0.1 mm 9 mps 739 mmHg 64%
    14:00 +6°C° 0.5 mm 9 mps 739 mmHg 66%
    15:00 +6°C° 0.5 mm 9 mps 739 mmHg 68%
    16:00 +6°C° 0.5 mm 8 mps 739 mmHg 69%
    17:00 +5°C° 0.5 mm 7 mps 740 mmHg 74%
    18:00 +4°C° 0.5 mm 6 mps 740 mmHg 78%
    19:00 +5°C° 0.5 mm 5 mps 741 mmHg 82%
    20:00 +4°C° 0.4 mm 4 mps 741 mmHg 85%
    21:00 +3°C° 0.4 mm 4 mps 742 mmHg 88%
    22:00 +3°C° 0.4 mm 3 mps 742 mmHg 91%
    23:00 +2°C° 0.1 mm 3 mps 742 mmHg 92%
    Show more